Location: Utrecht
(52.0907°N, 5.1214°E)
Time: 16:29:27
(UTC+02:00)

BEESAT - Visible Passes

Search period start: 25 June 2022 00:00
Search period end: 05 July 2022 00:00
Orbit: 698 x 708 km, 98.6° (Epoch: 24 June)

Date Brightness Start Highest point End Pass type
(mag) Time Alt. Az. Time Alt. Az. Time Alt. Az.
25 Jun ? 22:50:17 10° N 22:54:56 53° WNW 22:59:34 10° SW visible
26 Jun ? 00:30:24 10° NNW 00:31:39 11° NW 00:32:54 10° WNW visible
26 Jun ? 23:33:43 10° N 23:37:36 26° WNW 23:41:30 10° WSW visible
28 Jun ? 00:17:49 10° NNW 00:20:03 13° NW 00:22:17 10° WNW visible
28 Jun ? 23:21:44 10° N 23:25:55 31° WNW 23:30:06 10° WSW visible
30 Jun ? 00:05:33 10° NNW 00:08:25 16° NW 00:11:17 10° W visible
30 Jun ? 23:09:47 10° N 23:14:12 38° WNW 23:18:36 10° SW visible
01 Jul ? 23:53:25 10° N 23:56:46 19° NW 00:00:07 10° W visible
02 Jul ? 22:57:52 10° N 23:02:27 47° WNW 23:07:02 10° SW visible
03 Jul ? 23:41:21 10° N 23:45:06 23° WNW 23:48:51 10° WSW visible
04 Jul ? 22:45:59 10° N 22:50:42 60° WNW 22:55:23 10° SSW visible
